Flag Weather past 2 weeks in Erftstadt, North Rhine-Westphalia, Germany

Now
46 °F

Passing clouds.


Feels Like: 46 °F
Forecast: 37 / 52 °F
Wind: 2 mph from Southeast

Location: Noervenich

Current Time: Nov 23, 2014 at 6:16:22 AM

Latest Report: Nov 23, 2014 at 5:20 AM


Visibility: N/A

Pressure: 30.07 "Hg

Humidity: 93%

Dew point: 45 °F

Location of ErftstadtLocation

Historic Weather in Erftstadt — Graph

°F

Erftstadt temperature yesterday

Maximum temperature yesterday: 54 °F (at 2:20 PM)
Minimum temperature yesterday: 41 °F (at 1:20 AM)
Average temperature yesterday: 46 °F

Past Weeks' High & Low Weather Summary

 TemperatureHumidityPressure
High55 °F (Nov 8, 12:20 PM)100% (Nov 10, 2:20 AM)30.33 "Hg (Nov 10, 2:20 AM)
Low36 °F (Nov 20, 3:20 AM)63% (Nov 8, 12:20 PM)29.53 "Hg (Nov 16, 1:20 PM)
Average47 °F88%29.85 "Hg
* Reported Nov 8 4:20 AM — Nov 23 4:20 AM, Erftstadt, Weather by CustomWeather, © 2014

Note: Actual official high and low records may vary slightly from our data, if they occured in-between our weather recording intervals... More about our weather records

Advertising

Erftstadt weather history for previous 24 hours

 ConditionsComfort  
Time TempWeatherWind HumidityBarometerVisibility
4:20 AM
Nov 23
46 °FPassing clouds.2 mph87%30.07 "HgN/A
3:20 AM46 °FPassing clouds.3 mph87%30.09 "HgN/A
2:20 AM46 °FPassing clouds.2 mph93%30.09 "HgN/A
1:20 AM46 °FPassing clouds.2 mph93%30.09 "HgN/A
12:20 AM46 °FPassing clouds.3 mph93%30.09 "HgN/A
11:20 PM
Nov 22
46 °FPartly cloudy.3 mph93%30.07 "HgN/A
10:20 PM46 °FPassing clouds.1 mph87%30.09 "HgN/A
9:20 PM46 °FPassing clouds.1 mph93%30.07 "HgN/A
8:20 PM46 °FPassing clouds.2 mph93%30.07 "HgN/A
7:20 PM46 °FPassing clouds.2 mph93%30.07 "HgN/A
6:20 PM46 °FPassing clouds.3 mph93%30.07 "HgN/A
5:20 PM48 °FPassing clouds.2 mph87%30.07 "HgN/A
4:20 PM52 °FScattered clouds.2 mph82%30.07 "HgN/A
3:20 PM54 °FPassing clouds.3 mph82%30.07 "HgN/A
2:20 PM54 °FPassing clouds.6 mph77%30.07 "HgN/A
1:20 PM52 °FScattered clouds.3 mph82%30.07 "HgN/A
12:20 PM50 °FPartly sunny.5 mph82%30.07 "HgN/A
11:20 AM48 °FPartly sunny.5 mph87%30.07 "HgN/A
10:20 AM45 °FScattered clouds.2 mph87%30.07 "HgN/A
9:20 AM43 °FScattered clouds.3 mph87%30.07 "HgN/A
8:20 AM41 °FScattered clouds.3 mph93%30.07 "HgN/A
7:20 AM41 °FPassing clouds.3 mph87%30.07 "HgN/A
6:20 AM41 °FPassing clouds.3 mph87%30.07 "HgN/A
Weather by CustomWeather, © 2014

See weather overviewHow to use our weather pages